#datetime,building,power
2023-01-28T00:00:00,mfh,65.21
2023-01-28T00:01:00,mfh,64.69
2023-01-28T00:02:00,mfh,64.34
2023-01-28T00:03:00,mfh,64.84
2023-01-28T00:04:00,mfh,64.62
2023-01-28T00:05:00,mfh,64.28
2023-01-28T00:06:00,mfh,64.08
2023-01-28T00:07:00,mfh,64.46
2023-01-28T00:08:00,mfh,63.74
2023-01-28T00:09:00,mfh,61.48
2023-01-28T00:10:00,mfh,55.52
2023-01-28T00:11:00,mfh,49.01
2023-01-28T00:12:00,mfh,49.46
2023-01-28T00:13:00,mfh,50.08
2023-01-28T00:14:00,mfh,49.70
2023-01-28T00:15:00,mfh,49.89
2023-01-28T00:16:00,mfh,49.70
2023-01-28T00:17:00,mfh,44.47
2023-01-28T00:18:00,mfh,43.93
2023-01-28T00:19:00,mfh,43.97
2023-01-28T00:20:00,mfh,44.01
2023-01-28T00:21:00,mfh,44.77
2023-01-28T00:22:00,mfh,44.80
2023-01-28T00:23:00,mfh,44.85
2023-01-28T00:24:00,mfh,44.92
2023-01-28T00:25:00,mfh,45.10
2023-01-28T00:26:00,mfh,45.13
2023-01-28T00:27:00,mfh,44.64
2023-01-28T00:28:00,mfh,44.69
2023-01-28T00:29:00,mfh,44.89
2023-01-28T00:30:00,mfh,46.25
2023-01-28T00:31:00,mfh,46.26
2023-01-28T00:32:00,mfh,46.25
2023-01-28T00:33:00,mfh,46.20
2023-01-28T00:34:00,mfh,46.15
2023-01-28T00:35:00,mfh,45.34
2023-01-28T00:36:00,mfh,45.10
2023-01-28T00:37:00,mfh,45.21
2023-01-28T00:38:00,mfh,44.78
2023-01-28T00:39:00,mfh,45.40
2023-01-28T00:40:00,mfh,45.34
2023-01-28T00:41:00,mfh,46.00
2023-01-28T00:42:00,mfh,45.44
2023-01-28T00:43:00,mfh,45.48
2023-01-28T00:44:00,mfh,45.92
2023-01-28T00:45:00,mfh,44.86
2023-01-28T00:46:00,mfh,44.80
2023-01-28T00:47:00,mfh,44.62
2023-01-28T00:48:00,mfh,45.23
2023-01-28T00:49:00,mfh,45.34
2023-01-28T00:50:00,mfh,45.42
2023-01-28T00:51:00,mfh,45.33
2023-01-28T00:52:00,mfh,45.37
2023-01-28T00:53:00,mfh,45.47
2023-01-28T00:54:00,mfh,44.89
2023-01-28T00:55:00,mfh,44.85
2023-01-28T00:56:00,mfh,44.86
2023-01-28T00:57:00,mfh,45.52
2023-01-28T00:58:00,mfh,45.49
2023-01-28T00:59:00,mfh,46.18
2023-01-28T01:00:00,mfh,45.45
2023-01-28T01:01:00,mfh,45.82
2023-01-28T01:02:00,mfh,46.00
2023-01-28T01:03:00,mfh,45.72
2023-01-28T01:04:00,mfh,44.82
2023-01-28T01:05:00,mfh,44.87
2023-01-28T01:06:00,mfh,45.36
2023-01-28T01:07:00,mfh,45.59
2023-01-28T01:08:00,mfh,45.48
2023-01-28T01:09:00,mfh,45.34
2023-01-28T01:10:00,mfh,47.59
2023-01-28T01:11:00,mfh,47.42
2023-01-28T01:12:00,mfh,47.41
2023-01-28T01:13:00,mfh,46.76
2023-01-28T01:14:00,mfh,46.83
2023-01-28T01:15:00,mfh,46.79
2023-01-28T01:16:00,mfh,47.23
2023-01-28T01:17:00,mfh,47.17
2023-01-28T01:18:00,mfh,47.11
2023-01-28T01:19:00,mfh,47.25
2023-01-28T01:20:00,mfh,48.70
2023-01-28T01:21:00,mfh,48.79
2023-01-28T01:22:00,mfh,48.13
2023-01-28T01:23:00,mfh,48.11
2023-01-28T01:24:00,mfh,48.07
2023-01-28T01:25:00,mfh,49.11
2023-01-28T01:26:00,mfh,48.78
2023-01-28T01:27:00,mfh,47.23
2023-01-28T01:28:00,mfh,47.22
2023-01-28T01:29:00,mfh,45.57
2023-01-28T01:30:00,mfh,45.31
2023-01-28T01:31:00,mfh,44.54
2023-01-28T01:32:00,mfh,44.62
2023-01-28T01:33:00,mfh,44.61
2023-01-28T01:34:00,mfh,45.09
2023-01-28T01:35:00,mfh,45.08
2023-01-28T01:36:00,mfh,45.34
2023-01-28T01:37:00,mfh,46.09
2023-01-28T01:38:00,mfh,45.38
2023-01-28T01:39:00,mfh,45.48
2023-01-28T01:40:00,mfh,44.77
2023-01-28T01:41:00,mfh,44.85
2023-01-28T01:42:00,mfh,45.48
2023-01-28T01:43:00,mfh,45.30
2023-01-28T01:44:00,mfh,45.43
2023-01-28T01:45:00,mfh,45.44
2023-01-28T01:46:00,mfh,45.49
2023-01-28T01:47:00,mfh,45.62
2023-01-28T01:48:00,mfh,45.62
2023-01-28T01:49:00,mfh,44.91
2023-01-28T01:50:00,mfh,45.15
2023-01-28T01:51:00,mfh,44.88
2023-01-28T01:52:00,mfh,45.65
2023-01-28T01:53:00,mfh,45.61
2023-01-28T01:54:00,mfh,45.62
2023-01-28T01:55:00,mfh,45.49
2023-01-28T01:56:00,mfh,45.48
2023-01-28T01:57:00,mfh,45.41
2023-01-28T01:58:00,mfh,44.74
2023-01-28T01:59:00,mfh,44.72
2023-01-28T02:00:00,mfh,45.46
2023-01-28T02:01:00,mfh,45.84
2023-01-28T02:02:00,mfh,45.87
2023-01-28T02:03:00,mfh,45.59
2023-01-28T02:04:00,mfh,46.02
2023-01-28T02:05:00,mfh,45.64
2023-01-28T02:06:00,mfh,45.64
2023-01-28T02:07:00,mfh,44.84
2023-01-28T02:08:00,mfh,44.77
2023-01-28T02:09:00,mfh,44.72
2023-01-28T02:10:00,mfh,45.66
2023-01-28T02:11:00,mfh,46.58
2023-01-28T02:12:00,mfh,45.90
2023-01-28T02:13:00,mfh,45.86
2023-01-28T02:14:00,mfh,45.96
2023-01-28T02:15:00,mfh,45.94
2023-01-28T02:16:00,mfh,45.25
2023-01-28T02:17:00,mfh,45.13
2023-01-28T02:18:00,mfh,45.47
2023-01-28T02:19:00,mfh,45.67
2023-01-28T02:20:00,mfh,45.98
2023-01-28T02:21:00,mfh,45.64
2023-01-28T02:22:00,mfh,47.85
2023-01-28T02:23:00,mfh,47.67
2023-01-28T02:24:00,mfh,47.63
2023-01-28T02:25:00,mfh,46.99
2023-01-28T02:26:00,mfh,46.96
2023-01-28T02:27:00,mfh,46.99
2023-01-28T02:28:00,mfh,47.40
2023-01-28T02:29:00,mfh,47.90
2023-01-28T02:30:00,mfh,47.41
2023-01-28T02:31:00,mfh,47.41
2023-01-28T02:32:00,mfh,47.27
2023-01-28T02:33:00,mfh,48.50
2023-01-28T02:34:00,mfh,47.33
2023-01-28T02:35:00,mfh,47.46
2023-01-28T02:36:00,mfh,47.39
2023-01-28T02:37:00,mfh,48.53
2023-01-28T02:38:00,mfh,48.66
2023-01-28T02:39:00,mfh,48.32
2023-01-28T02:40:00,mfh,48.45
2023-01-28T02:41:00,mfh,47.57
2023-01-28T02:42:00,mfh,47.89
2023-01-28T02:43:00,mfh,45.52
2023-01-28T02:44:00,mfh,45.22
2023-01-28T02:45:00,mfh,45.31
2023-01-28T02:46:00,mfh,45.05
2023-01-28T02:47:00,mfh,45.57
2023-01-28T02:48:00,mfh,45.61
2023-01-28T02:49:00,mfh,45.63
2023-01-28T02:50:00,mfh,45.65
2023-01-28T02:51:00,mfh,45.52
2023-01-28T02:52:00,mfh,45.80
2023-01-28T02:53:00,mfh,45.50
2023-01-28T02:54:00,mfh,44.91
2023-01-28T02:55:00,mfh,44.90
2023-01-28T02:56:00,mfh,44.76
2023-01-28T02:57:00,mfh,45.44
2023-01-28T02:58:00,mfh,45.89
2023-01-28T02:59:00,mfh,45.39
2023-01-28T03:00:00,mfh,45.54
2023-01-28T03:01:00,mfh,45.73
2023-01-28T03:02:00,mfh,45.10
2023-01-28T03:03:00,mfh,45.06
2023-01-28T03:04:00,mfh,45.09
2023-01-28T03:05:00,mfh,45.61
2023-01-28T03:06:00,mfh,45.74
2023-01-28T03:07:00,mfh,45.53
2023-01-28T03:08:00,mfh,45.61
2023-01-28T03:09:00,mfh,45.71
2023-01-28T03:10:00,mfh,45.76
2023-01-28T03:11:00,mfh,45.56
2023-01-28T03:12:00,mfh,45.57
2023-01-28T03:13:00,mfh,44.87
2023-01-28T03:14:00,mfh,45.04
2023-01-28T03:15:00,mfh,46.02
2023-01-28T03:16:00,mfh,45.51
2023-01-28T03:17:00,mfh,45.72
2023-01-28T03:18:00,mfh,45.70
2023-01-28T03:19:00,mfh,46.44
2023-01-28T03:20:00,mfh,45.58
2023-01-28T03:21:00,mfh,45.15
2023-01-28T03:22:00,mfh,45.08
2023-01-28T03:23:00,mfh,45.17
2023-01-28T03:24:00,mfh,45.70
2023-01-28T03:25:00,mfh,46.02
2023-01-28T03:26:00,mfh,45.70
2023-01-28T03:27:00,mfh,46.77
2023-01-28T03:28:00,mfh,45.95
2023-01-28T03:29:00,mfh,45.79
2023-01-28T03:30:00,mfh,44.94
2023-01-28T03:31:00,mfh,44.93
2023-01-28T03:32:00,mfh,44.94
2023-01-28T03:33:00,mfh,45.52
2023-01-28T03:34:00,mfh,48.57
2023-01-28T03:35:00,mfh,47.41
2023-01-28T03:36:00,mfh,48.10
2023-01-28T03:37:00,mfh,48.20
2023-01-28T03:38:00,mfh,47.77
2023-01-28T03:39:00,mfh,47.32
2023-01-28T03:40:00,mfh,46.55
2023-01-28T03:41:00,mfh,46.62
2023-01-28T03:42:00,mfh,47.69
2023-01-28T03:43:00,mfh,47.76
2023-01-28T03:44:00,mfh,47.23
2023-01-28T03:45:00,mfh,47.44
2023-01-28T03:46:00,mfh,47.36
2023-01-28T03:47:00,mfh,47.38
2023-01-28T03:48:00,mfh,47.75
2023-01-28T03:49:00,mfh,46.85
2023-01-28T03:50:00,mfh,47.36
2023-01-28T03:51:00,mfh,47.18
2023-01-28T03:52:00,mfh,47.70
2023-01-28T03:53:00,mfh,48.22
2023-01-28T03:54:00,mfh,48.13
2023-01-28T03:55:00,mfh,45.78
2023-01-28T03:56:00,mfh,45.79
2023-01-28T03:57:00,mfh,45.45
2023-01-28T03:58:00,mfh,44.95
2023-01-28T03:59:00,mfh,45.21
2023-01-28T04:00:00,mfh,44.62
2023-01-28T04:01:00,mfh,45.19
2023-01-28T04:02:00,mfh,45.70
2023-01-28T04:03:00,mfh,45.21
2023-01-28T04:04:00,mfh,45.18
2023-01-28T04:05:00,mfh,45.24
2023-01-28T04:06:00,mfh,45.18
2023-01-28T04:07:00,mfh,44.75
2023-01-28T04:08:00,mfh,45.12
2023-01-28T04:09:00,mfh,44.67
2023-01-28T04:10:00,mfh,45.47
2023-01-28T04:11:00,mfh,45.39
2023-01-28T04:12:00,mfh,45.45
2023-01-28T04:13:00,mfh,45.36
2023-01-28T04:14:00,mfh,45.97
2023-01-28T04:15:00,mfh,45.53
2023-01-28T04:16:00,mfh,45.13
2023-01-28T04:17:00,mfh,44.75
2023-01-28T04:18:00,mfh,44.76
2023-01-28T04:19:00,mfh,45.95
2023-01-28T04:20:00,mfh,45.56
2023-01-28T04:21:00,mfh,45.49
2023-01-28T04:22:00,mfh,45.76
2023-01-28T04:23:00,mfh,45.72
2023-01-28T04:24:00,mfh,45.44
2023-01-28T04:25:00,mfh,44.80
2023-01-28T04:26:00,mfh,44.92
2023-01-28T04:27:00,mfh,45.47
2023-01-28T04:28:00,mfh,46.08
2023-01-28T04:29:00,mfh,46.28
2023-01-28T04:30:00,mfh,45.57
2023-01-28T04:31:00,mfh,45.43
2023-01-28T04:32:00,mfh,45.52
2023-01-28T04:33:00,mfh,45.65
2023-01-28T04:34:00,mfh,44.92
2023-01-28T04:35:00,mfh,44.73
2023-01-28T04:36:00,mfh,44.62
2023-01-28T04:37:00,mfh,45.18
2023-01-28T04:38:00,mfh,45.17
2023-01-28T04:39:00,mfh,45.19
2023-01-28T04:40:00,mfh,45.89
2023-01-28T04:41:00,mfh,45.96
2023-01-28T04:42:00,mfh,46.06
2023-01-28T04:43:00,mfh,45.93
2023-01-28T04:44:00,mfh,47.32
2023-01-28T04:45:00,mfh,48.01
2023-01-28T04:46:00,mfh,46.69
2023-01-28T04:47:00,mfh,47.38
2023-01-28T04:48:00,mfh,48.22
2023-01-28T04:49:00,mfh,47.38
2023-01-28T04:50:00,mfh,47.44
2023-01-28T04:51:00,mfh,47.35
2023-01-28T04:52:00,mfh,46.81
2023-01-28T04:53:00,mfh,46.78
2023-01-28T04:54:00,mfh,46.85
2023-01-28T04:55:00,mfh,47.34
2023-01-28T04:56:00,mfh,47.53
2023-01-28T04:57:00,mfh,47.60
2023-01-28T04:58:00,mfh,47.45
2023-01-28T04:59:00,mfh,47.55
2023-01-28T05:00:00,mfh,47.30
2023-01-28T05:01:00,mfh,66.46
2023-01-28T05:02:00,mfh,68.23
2023-01-28T05:03:00,mfh,68.45
2023-01-28T05:04:00,mfh,68.06
2023-01-28T05:05:00,mfh,67.24
2023-01-28T05:06:00,mfh,66.66
2023-01-28T05:07:00,mfh,66.35
2023-01-28T05:08:00,mfh,65.65
2023-01-28T05:09:00,mfh,66.44
2023-01-28T05:10:00,mfh,65.11
2023-01-28T05:11:00,mfh,67.63
2023-01-28T05:12:00,mfh,65.85
2023-01-28T05:13:00,mfh,65.84
2023-01-28T05:14:00,mfh,66.66
2023-01-28T05:15:00,mfh,67.22
2023-01-28T05:16:00,mfh,66.42
2023-01-28T05:17:00,mfh,66.52
2023-01-28T05:18:00,mfh,66.59
2023-01-28T05:19:00,mfh,66.74
2023-01-28T05:20:00,mfh,65.84
2023-01-28T05:21:00,mfh,66.02
2023-01-28T05:22:00,mfh,66.85
2023-01-28T05:23:00,mfh,66.66
2023-01-28T05:24:00,mfh,66.31
2023-01-28T05:25:00,mfh,66.36
2023-01-28T05:26:00,mfh,66.41
2023-01-28T05:27:00,mfh,67.23
2023-01-28T05:28:00,mfh,66.36
2023-01-28T05:29:00,mfh,65.80
2023-01-28T05:30:00,mfh,65.88
2023-01-28T05:31:00,mfh,67.89
2023-01-28T05:32:00,mfh,67.91
2023-01-28T05:33:00,mfh,67.72
2023-01-28T05:34:00,mfh,68.00
2023-01-28T05:35:00,mfh,68.09
2023-01-28T05:36:00,mfh,68.30
2023-01-28T05:37:00,mfh,67.27
2023-01-28T05:38:00,mfh,65.71
2023-01-28T05:39:00,mfh,65.73
2023-01-28T05:40:00,mfh,65.69
2023-01-28T05:41:00,mfh,66.55
2023-01-28T05:42:00,mfh,66.52
2023-01-28T05:43:00,mfh,66.42
2023-01-28T05:44:00,mfh,66.33
2023-01-28T05:45:00,mfh,66.44
2023-01-28T05:46:00,mfh,65.55
2023-01-28T05:47:00,mfh,65.59
2023-01-28T05:48:00,mfh,83.32
2023-01-28T05:49:00,mfh,84.57
2023-01-28T05:50:00,mfh,84.60
2023-01-28T05:51:00,mfh,84.79
2023-01-28T05:52:00,mfh,84.13
2023-01-28T05:53:00,mfh,83.83
2023-01-28T05:54:00,mfh,83.26
2023-01-28T05:55:00,mfh,82.86
2023-01-28T05:56:00,mfh,82.40
2023-01-28T05:57:00,mfh,82.47
2023-01-28T05:58:00,mfh,83.03
2023-01-28T05:59:00,mfh,83.07
2023-01-28T06:00:00,mfh,82.82
2023-01-28T06:01:00,mfh,82.63
2023-01-28T06:02:00,mfh,83.39
2023-01-28T06:03:00,mfh,82.71
2023-01-28T06:04:00,mfh,76.86
2023-01-28T06:05:00,mfh,70.83
2023-01-28T06:06:00,mfh,70.56
2023-01-28T06:07:00,mfh,66.47
2023-01-28T06:08:00,mfh,66.41
2023-01-28T06:09:00,mfh,66.34
2023-01-28T06:10:00,mfh,66.14
2023-01-28T06:11:00,mfh,66.14
2023-01-28T06:12:00,mfh,66.47
2023-01-28T06:13:00,mfh,66.33
2023-01-28T06:14:00,mfh,66.27
2023-01-28T06:15:00,mfh,66.10
2023-01-28T06:16:00,mfh,66.73
2023-01-28T06:17:00,mfh,65.99
2023-01-28T06:18:00,mfh,64.13
2023-01-28T06:19:00,mfh,64.31
2023-01-28T06:20:00,mfh,64.44
2023-01-28T06:21:00,mfh,64.37
2023-01-28T06:22:00,mfh,63.72
2023-01-28T06:23:00,mfh,64.39
2023-01-28T06:24:00,mfh,63.90
2023-01-28T06:25:00,mfh,65.03
2023-01-28T06:26:00,mfh,64.16
2023-01-28T06:27:00,mfh,64.40
2023-01-28T06:28:00,mfh,64.34
2023-01-28T06:29:00,mfh,64.18
2023-01-28T06:30:00,mfh,64.38
2023-01-28T06:31:00,mfh,63.80
2023-01-28T06:32:00,mfh,63.74
2023-01-28T06:33:00,mfh,63.67
2023-01-28T06:34:00,mfh,64.52
2023-01-28T06:35:00,mfh,64.41
2023-01-28T06:36:00,mfh,64.67
2023-01-28T06:37:00,mfh,64.61
2023-01-28T06:38:00,mfh,65.06
2023-01-28T06:39:00,mfh,64.52
2023-01-28T06:40:00,mfh,63.87
2023-01-28T06:41:00,mfh,63.92
2023-01-28T06:42:00,mfh,64.16
2023-01-28T06:43:00,mfh,65.00
2023-01-28T06:44:00,mfh,63.84
2023-01-28T06:45:00,mfh,63.76
2023-01-28T06:46:00,mfh,64.25
2023-01-28T06:47:00,mfh,63.94
2023-01-28T06:48:00,mfh,64.74
2023-01-28T06:49:00,mfh,63.58
2023-01-28T06:50:00,mfh,63.67
2023-01-28T06:51:00,mfh,63.58
2023-01-28T06:52:00,mfh,64.21
2023-01-28T06:53:00,mfh,64.89
2023-01-28T06:54:00,mfh,64.10
2023-01-28T06:55:00,mfh,64.15
2023-01-28T06:56:00,mfh,64.12
2023-01-28T06:57:00,mfh,63.34
2023-01-28T06:58:00,mfh,63.44
2023-01-28T06:59:00,mfh,63.58
2023-01-28T07:00:00,mfh,63.27
2023-01-28T07:01:00,mfh,64.67
2023-01-28T07:02:00,mfh,64.70
2023-01-28T07:03:00,mfh,64.92
2023-01-28T07:04:00,mfh,64.60
2023-01-28T07:05:00,mfh,64.81
2023-01-28T07:06:00,mfh,64.34
2023-01-28T07:07:00,mfh,62.55
2023-01-28T07:08:00,mfh,62.49
2023-01-28T07:09:00,mfh,62.30
2023-01-28T07:10:00,mfh,63.10
2023-01-28T07:11:00,mfh,63.41
2023-01-28T07:12:00,mfh,63.25
2023-01-28T07:13:00,mfh,62.90
2023-01-28T07:14:00,mfh,62.95
2023-01-28T07:15:00,mfh,62.23
2023-01-28T07:16:00,mfh,64.39
2023-01-28T07:17:00,mfh,64.23
2023-01-28T07:18:00,mfh,64.83
2023-01-28T07:19:00,mfh,64.55
2023-01-28T07:20:00,mfh,64.61
2023-01-28T07:21:00,mfh,64.64
2023-01-28T07:22:00,mfh,64.93
2023-01-28T07:23:00,mfh,64.16
2023-01-28T07:24:00,mfh,64.26
2023-01-28T07:25:00,mfh,63.52
2023-01-28T07:26:00,mfh,63.45
2023-01-28T07:27:00,mfh,63.42
2023-01-28T07:28:00,mfh,64.13
2023-01-28T07:29:00,mfh,63.99
2023-01-28T07:30:00,mfh,63.82
2023-01-28T07:31:00,mfh,63.87
2023-01-28T07:32:00,mfh,63.97
2023-01-28T07:33:00,mfh,63.40
2023-01-28T07:34:00,mfh,63.35
2023-01-28T07:35:00,mfh,63.28
2023-01-28T07:36:00,mfh,62.54
2023-01-28T07:37:00,mfh,62.47
2023-01-28T07:38:00,mfh,62.31
2023-01-28T07:39:00,mfh,62.14
2023-01-28T07:40:00,mfh,62.11
2023-01-28T07:41:00,mfh,62.13
2023-01-28T07:42:00,mfh,61.60
2023-01-28T07:43:00,mfh,61.69
2023-01-28T07:44:00,mfh,61.70
2023-01-28T07:45:00,mfh,62.40
2023-01-28T07:46:00,mfh,62.58
2023-01-28T07:47:00,mfh,62.62
2023-01-28T07:48:00,mfh,62.67
2023-01-28T07:49:00,mfh,63.99
2023-01-28T07:50:00,mfh,63.22
2023-01-28T07:51:00,mfh,62.67
2023-01-28T07:52:00,mfh,62.38
2023-01-28T07:53:00,mfh,62.54
2023-01-28T07:54:00,mfh,62.59
2023-01-28T07:55:00,mfh,63.21
2023-01-28T07:56:00,mfh,62.41
2023-01-28T07:57:00,mfh,62.44
2023-01-28T07:58:00,mfh,62.62
2023-01-28T07:59:00,mfh,62.52
2023-01-28T08:00:00,mfh,62.07
2023-01-28T08:01:00,mfh,61.92
2023-01-28T08:02:00,mfh,62.49
2023-01-28T08:03:00,mfh,63.23
2023-01-28T08:04:00,mfh,63.20
2023-01-28T08:05:00,mfh,62.32
2023-01-28T08:06:00,mfh,62.07
2023-01-28T08:07:00,mfh,61.95
2023-01-28T08:08:00,mfh,63.14
2023-01-28T08:09:00,mfh,62.50
2023-01-28T08:10:00,mfh,62.47
2023-01-28T08:11:00,mfh,62.62
2023-01-28T08:12:00,mfh,62.51
2023-01-28T08:13:00,mfh,61.98
2023-01-28T08:14:00,mfh,61.82
2023-01-28T08:15:00,mfh,61.86
2023-01-28T08:16:00,mfh,62.57
2023-01-28T08:17:00,mfh,62.41
2023-01-28T08:18:00,mfh,62.33
2023-01-28T08:19:00,mfh,62.57
2023-01-28T08:20:00,mfh,62.60
2023-01-28T08:21:00,mfh,62.57
2023-01-28T08:22:00,mfh,61.73
2023-01-28T08:23:00,mfh,61.80
2023-01-28T08:24:00,mfh,61.80
2023-01-28T08:25:00,mfh,61.77
2023-01-28T08:26:00,mfh,63.05
2023-01-28T08:27:00,mfh,62.76
2023-01-28T08:28:00,mfh,62.65
2023-01-28T08:29:00,mfh,62.70
2023-01-28T08:30:00,mfh,62.77
2023-01-28T08:31:00,mfh,67.24
2023-01-28T08:32:00,mfh,66.49
2023-01-28T08:33:00,mfh,67.59
2023-01-28T08:34:00,mfh,67.09
2023-01-28T08:35:00,mfh,67.13
2023-01-28T08:36:00,mfh,68.91
2023-01-28T08:37:00,mfh,68.84
2023-01-28T08:38:00,mfh,68.88
2023-01-28T08:39:00,mfh,69.00
2023-01-28T08:40:00,mfh,68.80
2023-01-28T08:41:00,mfh,68.69
2023-01-28T08:42:00,mfh,68.70
2023-01-28T08:43:00,mfh,68.27
2023-01-28T08:44:00,mfh,68.08
2023-01-28T08:45:00,mfh,68.23
2023-01-28T08:46:00,mfh,68.98
2023-01-28T08:47:00,mfh,69.55
2023-01-28T08:48:00,mfh,69.54
2023-01-28T08:49:00,mfh,69.56
2023-01-28T08:50:00,mfh,69.68
2023-01-28T08:51:00,mfh,69.95
2023-01-28T08:52:00,mfh,69.57
2023-01-28T08:53:00,mfh,69.56
2023-01-28T08:54:00,mfh,68.99
2023-01-28T08:55:00,mfh,69.08
2023-01-28T08:56:00,mfh,67.32
2023-01-28T08:57:00,mfh,68.85
2023-01-28T08:58:00,mfh,68.91
2023-01-28T08:59:00,mfh,76.53
2023-01-28T09:00:00,mfh,83.93
2023-01-28T09:01:00,mfh,84.30
2023-01-28T09:02:00,mfh,85.95
2023-01-28T09:03:00,mfh,86.08
2023-01-28T09:04:00,mfh,85.95
2023-01-28T09:05:00,mfh,85.73
2023-01-28T09:06:00,mfh,85.67
2023-01-28T09:07:00,mfh,85.74
2023-01-28T09:08:00,mfh,85.74
2023-01-28T09:09:00,mfh,85.58
2023-01-28T09:10:00,mfh,85.86
2023-01-28T09:11:00,mfh,85.76
2023-01-28T09:12:00,mfh,85.83
2023-01-28T09:13:00,mfh,85.80
2023-01-28T09:14:00,mfh,85.80
2023-01-28T09:15:00,mfh,85.84
2023-01-28T09:16:00,mfh,85.71
2023-01-28T09:17:00,mfh,85.65
2023-01-28T09:18:00,mfh,85.62
2023-01-28T09:19:00,mfh,85.61
2023-01-28T09:20:00,mfh,85.59
2023-01-28T09:21:00,mfh,85.67
2023-01-28T09:22:00,mfh,86.43
2023-01-28T09:23:00,mfh,86.28
2023-01-28T09:24:00,mfh,85.97
2023-01-28T09:25:00,mfh,85.95
2023-01-28T09:26:00,mfh,85.91
2023-01-28T09:27:00,mfh,86.05
2023-01-28T09:28:00,mfh,85.92
2023-01-28T09:29:00,mfh,86.16
2023-01-28T09:30:00,mfh,86.22
2023-01-28T09:31:00,mfh,86.25
2023-01-28T09:32:00,mfh,85.82
2023-01-28T09:33:00,mfh,85.52
2023-01-28T09:34:00,mfh,85.46
2023-01-28T09:35:00,mfh,85.61
2023-01-28T09:36:00,mfh,85.91
2023-01-28T09:37:00,mfh,85.77
2023-01-28T09:38:00,mfh,88.03
2023-01-28T09:39:00,mfh,89.68
2023-01-28T09:40:00,mfh,89.79
2023-01-28T09:41:00,mfh,89.64
2023-01-28T09:42:00,mfh,89.55
2023-01-28T09:43:00,mfh,89.50
2023-01-28T09:44:00,mfh,89.45
2023-01-28T09:45:00,mfh,89.29
2023-01-28T09:46:00,mfh,89.26
2023-01-28T09:47:00,mfh,89.25
2023-01-28T09:48:00,mfh,89.12
2023-01-28T09:49:00,mfh,89.23
2023-01-28T09:50:00,mfh,89.04
2023-01-28T09:51:00,mfh,89.34
2023-01-28T09:52:00,mfh,89.38
2023-01-28T09:53:00,mfh,89.66
2023-01-28T09:54:00,mfh,89.52
2023-01-28T09:55:00,mfh,89.58
2023-01-28T09:56:00,mfh,89.70
2023-01-28T09:57:00,mfh,89.72
2023-01-28T09:58:00,mfh,89.67
2023-01-28T09:59:00,mfh,89.77
2023-01-28T10:00:00,mfh,90.01
2023-01-28T10:01:00,mfh,89.88
2023-01-28T10:02:00,mfh,89.83
2023-01-28T10:03:00,mfh,90.04
2023-01-28T10:04:00,mfh,89.83
2023-01-28T10:05:00,mfh,85.73
2023-01-28T10:06:00,mfh,81.25
2023-01-28T10:07:00,mfh,79.39
2023-01-28T10:08:00,mfh,86.33
2023-01-28T10:09:00,mfh,86.25
2023-01-28T10:10:00,mfh,86.34
2023-01-28T10:11:00,mfh,86.89
2023-01-28T10:12:00,mfh,89.21
2023-01-28T10:13:00,mfh,89.25
2023-01-28T10:14:00,mfh,89.17
2023-01-28T10:15:00,mfh,89.29
2023-01-28T10:16:00,mfh,89.18
2023-01-28T10:17:00,mfh,89.20
2023-01-28T10:18:00,mfh,90.56
2023-01-28T10:19:00,mfh,90.48
2023-01-28T10:20:00,mfh,90.51
2023-01-28T10:21:00,mfh,90.53
2023-01-28T10:22:00,mfh,90.42
2023-01-28T10:23:00,mfh,90.41
2023-01-28T10:24:00,mfh,90.44
2023-01-28T10:25:00,mfh,90.36
2023-01-28T10:26:00,mfh,90.39
2023-01-28T10:27:00,mfh,90.27
2023-01-28T10:28:00,mfh,90.46
2023-01-28T10:29:00,mfh,90.23
2023-01-28T10:30:00,mfh,90.23
2023-01-28T10:31:00,mfh,90.24
2023-01-28T10:32:00,mfh,90.26
2023-01-28T10:33:00,mfh,90.21
2023-01-28T10:34:00,mfh,90.23
2023-01-28T10:35:00,mfh,90.31
2023-01-28T10:36:00,mfh,90.21
2023-01-28T10:37:00,mfh,90.42
2023-01-28T10:38:00,mfh,90.48
2023-01-28T10:39:00,mfh,90.54
2023-01-28T10:40:00,mfh,90.40
2023-01-28T10:41:00,mfh,90.20
2023-01-28T10:42:00,mfh,90.17
2023-01-28T10:43:00,mfh,90.18
2023-01-28T10:44:00,mfh,90.06
2023-01-28T10:45:00,mfh,90.15
2023-01-28T10:46:00,mfh,90.24
2023-01-28T10:47:00,mfh,90.33
2023-01-28T10:48:00,mfh,90.42
2023-01-28T10:49:00,mfh,90.43
2023-01-28T10:50:00,mfh,90.39
2023-01-28T10:51:00,mfh,90.36
2023-01-28T10:52:00,mfh,90.39
2023-01-28T10:53:00,mfh,90.50
2023-01-28T10:54:00,mfh,90.50
2023-01-28T10:55:00,mfh,90.13
2023-01-28T10:56:00,mfh,90.03
2023-01-28T10:57:00,mfh,90.23
2023-01-28T10:58:00,mfh,90.05
2023-01-28T10:59:00,mfh,90.13
2023-01-28T11:00:00,mfh,90.27
2023-01-28T11:01:00,mfh,90.22
2023-01-28T11:02:00,mfh,90.22
2023-01-28T11:03:00,mfh,90.11
2023-01-28T11:04:00,mfh,90.33
2023-01-28T11:05:00,mfh,90.46
2023-01-28T11:06:00,mfh,90.45
2023-01-28T11:07:00,mfh,90.42
2023-01-28T11:08:00,mfh,90.16
2023-01-28T11:09:00,mfh,90.22
2023-01-28T11:10:00,mfh,90.20
2023-01-28T11:11:00,mfh,90.40
2023-01-28T11:12:00,mfh,90.12
2023-01-28T11:13:00,mfh,90.08
2023-01-28T11:14:00,mfh,90.03
2023-01-28T11:15:00,mfh,90.04
2023-01-28T11:16:00,mfh,90.06
2023-01-28T11:17:00,mfh,90.08
2023-01-28T11:18:00,mfh,90.19
2023-01-28T11:19:00,mfh,90.08
2023-01-28T11:20:00,mfh,90.17
2023-01-28T11:21:00,mfh,89.98
2023-01-28T11:22:00,mfh,89.87
2023-01-28T11:23:00,mfh,89.97
2023-01-28T11:24:00,mfh,89.95
2023-01-28T11:25:00,mfh,90.03
2023-01-28T11:26:00,mfh,90.05
2023-01-28T11:27:00,mfh,90.03
2023-01-28T11:28:00,mfh,89.98
2023-01-28T11:29:00,mfh,89.88
2023-01-28T11:30:00,mfh,89.94
2023-01-28T11:31:00,mfh,89.69
2023-01-28T11:32:00,mfh,90.06
2023-01-28T11:33:00,mfh,91.67
2023-01-28T11:34:00,mfh,91.59
2023-01-28T11:35:00,mfh,91.57
2023-01-28T11:36:00,mfh,91.41
2023-01-28T11:37:00,mfh,91.36
2023-01-28T11:38:00,mfh,91.54
2023-01-28T11:39:00,mfh,91.74
2023-01-28T11:40:00,mfh,91.63
2023-01-28T11:41:00,mfh,91.51
2023-01-28T11:42:00,mfh,91.53
2023-01-28T11:43:00,mfh,91.56
2023-01-28T11:44:00,mfh,91.60
2023-01-28T11:45:00,mfh,91.58
2023-01-28T11:46:00,mfh,91.51
2023-01-28T11:47:00,mfh,91.45
2023-01-28T11:48:00,mfh,91.38
2023-01-28T11:49:00,mfh,91.41
2023-01-28T11:50:00,mfh,91.39
2023-01-28T11:51:00,mfh,91.33
2023-01-28T11:52:00,mfh,91.30
2023-01-28T11:53:00,mfh,91.34
2023-01-28T11:54:00,mfh,91.15
2023-01-28T11:55:00,mfh,91.22
2023-01-28T11:56:00,mfh,91.27
2023-01-28T11:57:00,mfh,91.18
2023-01-28T11:58:00,mfh,91.39
2023-01-28T11:59:00,mfh,91.54
2023-01-28T12:00:00,mfh,91.58
2023-01-28T12:01:00,mfh,91.50
2023-01-28T12:02:00,mfh,91.40
2023-01-28T12:03:00,mfh,91.28
2023-01-28T12:04:00,mfh,91.38
2023-01-28T12:05:00,mfh,91.26
2023-01-28T12:06:00,mfh,91.32
2023-01-28T12:07:00,mfh,91.46
2023-01-28T12:08:00,mfh,91.42
2023-01-28T12:09:00,mfh,91.40
2023-01-28T12:10:00,mfh,91.36
2023-01-28T12:11:00,mfh,91.28
2023-01-28T12:12:00,mfh,91.22
2023-01-28T12:13:00,mfh,91.32
2023-01-28T12:14:00,mfh,91.37
2023-01-28T12:15:00,mfh,91.44
2023-01-28T12:16:00,mfh,91.44
2023-01-28T12:17:00,mfh,91.43
2023-01-28T12:18:00,mfh,91.46
2023-01-28T12:19:00,mfh,91.48
2023-01-28T12:20:00,mfh,91.28
2023-01-28T12:21:00,mfh,91.34
2023-01-28T12:22:00,mfh,91.21
2023-01-28T12:23:00,mfh,91.42
2023-01-28T12:24:00,mfh,91.10
2023-01-28T12:25:00,mfh,91.16
2023-01-28T12:26:00,mfh,90.97
2023-01-28T12:27:00,mfh,90.95
2023-01-28T12:28:00,mfh,90.98
2023-01-28T12:29:00,mfh,90.96
2023-01-28T12:30:00,mfh,90.94
2023-01-28T12:31:00,mfh,90.98
2023-01-28T12:32:00,mfh,90.97
2023-01-28T12:33:00,mfh,90.98
2023-01-28T12:34:00,mfh,90.95
2023-01-28T12:35:00,mfh,90.94
2023-01-28T12:36:00,mfh,90.79
2023-01-28T12:37:00,mfh,90.79
2023-01-28T12:38:00,mfh,90.85
2023-01-28T12:39:00,mfh,90.84
2023-01-28T12:40:00,mfh,90.82
2023-01-28T12:41:00,mfh,90.85
2023-01-28T12:42:00,mfh,90.92
2023-01-28T12:43:00,mfh,91.05
2023-01-28T12:44:00,mfh,90.92
2023-01-28T12:45:00,mfh,90.86
2023-01-28T12:46:00,mfh,90.86
2023-01-28T12:47:00,mfh,90.75
2023-01-28T12:48:00,mfh,90.75
2023-01-28T12:49:00,mfh,90.82
2023-01-28T12:50:00,mfh,90.88
2023-01-28T12:51:00,mfh,90.80
2023-01-28T12:52:00,mfh,90.86
2023-01-28T12:53:00,mfh,90.87
2023-01-28T12:54:00,mfh,90.98
2023-01-28T12:55:00,mfh,90.93
2023-01-28T12:56:00,mfh,90.83
2023-01-28T12:57:00,mfh,90.81
2023-01-28T12:58:00,mfh,90.92
2023-01-28T12:59:00,mfh,90.95
2023-01-28T13:00:00,mfh,90.78
2023-01-28T13:01:00,mfh,90.91
2023-01-28T13:02:00,mfh,90.93
2023-01-28T13:03:00,mfh,90.86
2023-01-28T13:04:00,mfh,90.88
2023-01-28T13:05:00,mfh,90.95
2023-01-28T13:06:00,mfh,91.01
2023-01-28T13:07:00,mfh,91.03
2023-01-28T13:08:00,mfh,91.06
2023-01-28T13:09:00,mfh,91.06
2023-01-28T13:10:00,mfh,91.14
2023-01-28T13:11:00,mfh,91.12
2023-01-28T13:12:00,mfh,90.99
2023-01-28T13:13:00,mfh,91.00
2023-01-28T13:14:00,mfh,91.04
2023-01-28T13:15:00,mfh,91.03
2023-01-28T13:16:00,mfh,91.07
2023-01-28T13:17:00,mfh,91.05
2023-01-28T13:18:00,mfh,91.08